Regional Weather Roundup
Issued by NWS

Home | Current Version | Previous Version | Text Only | Print | Product List | Glossary On
Versions: 1 2 3 4 5 6 7 8 9 10 11 12 13 14 15 16 17 18 19 20 21 22 23 24 25 26 27 28 29 30 31 32 33 34 35 36 37 38 39 40 41 42 43 44 45 46 47 48 49 50
000
ASUS43 KLSX 012307
RWRMO

WEATHER SUMMARY FOR MISSOURI
NATIONAL WEATHER SERVICE SPRINGFIELD MO
600 PM CDT FRI AUG 01 2014

NOTE: "FAIR" INDICATES FEW OR NO CLOUDS BELOW 12,000 FEET WITH NO
       SIGNIFICANT WEATHER AND/OR OBSTRUCTIONS TO VISIBILITY.
       CURRENT SKY AND/OR WEATHER CONDITIONS ARE NOT AVAILABLE FOR
       CHILLICOTHE AND FARMINGTON.

MOZ001>031-035>038-043-044-053-054-020000-
...NORTHERN AND WESTERN MISSOURI...

CITY           SKY/WX    TMP DP  RH WIND       PRES   REMARKS
KANSAS CTY INT MOSUNNY   83  62  49 E9        30.05S
KANSAS C DTWN  PTSUNNY   85  61  44 E8        30.03S
LEE`S SUMMIT   MOSUNNY   82  60  47 E6        30.06S
ST JOSEPH      SUNNY     81  62  52 S3        30.05S
CHILLICOTHE      N/A     84  59  42 CALM      30.07S
KIRKSVILLE     MOSUNNY   82  60  47 N6        30.07S

$$
MOZ066>068-077>081-088>096-101>105-020000-
...SOUTHWEST MISSOURI...

CITY           SKY/WX    TMP DP  RH WIND       PRES   REMARKS
SPRINGFIELD    PTSUNNY   82  57  42 S3        30.05S
JOPLIN         SUNNY     83  58  42 S7        30.05F

$$
MOZ032>034-039>042-045>050-055>058-069>072-020000-
...CENTRAL MISSOURI...

CITY           SKY/WX    TMP DP  RH WIND       PRES   REMARKS
COLUMBIA       PTSUNNY   84  59  42 NE5       30.07R
JEFFERSON CITY MOSUNNY   83  59  44 VRB3      30.05S
ROLLA          PTSUNNY   80  60  50 NE9       30.06R
SEDALIA        SUNNY     83  60  45 CALM      30.06F
WHITEMAN AFB   SUNNY     83  46  27 VRB2      30.05F
OSAGE BEACH      N/A     82  61  47 NE5       30.05S

$$
MOZ051-052-059>065-020000-
...EAST CENTRAL MISSOURI...

CITY           SKY/WX    TMP DP  RH WIND       PRES   REMARKS
ST LOUIS INTL  CLOUDY    77  65  66 CALM      30.08R
SPIRIT OF STL  LGT RAIN  71  68  90 CALM      30.06S
ST CHARLES     CLOUDY    75  63  66 NE5       30.07R

$$
MOZ072>076-082>087-097>100-106>115-020000-
...SOUTH CENTRAL AND SOUTHEAST MISSOURI...

CITY           SKY/WX    TMP DP  RH WIND       PRES   REMARKS
CAPE GIRARDEAU PTSUNNY   83  64  52 SW5       30.03S
FARMINGTON     CLOUDY    79  61  53 CALM      30.07R
POPLAR BLUFF   SUNNY     83  64  52 S3        30.02S
WEST PLAINS    SUNNY     79  62  56 S5        30.07S

$$


USA.gov is the U.S. government's official web portal to all federal, state and local government web resources and services.